User: anonymous   Login
Location: Unspecified
(43.4680°N, 87.1740°E)
Time: 16:09:33
(UTC+00:00)
Language:

Cosmos 2219 Rocket - Orbit

View from above orbital plane
View from above orbital plane
View from above satellite
View from above satellite

Ground track
Ground track

The orbit data is extracted from the following two-line orbital elements,

1 22220U 92076B   21168.61353986 -.00000129  00000-0 -40700-4 0  9990
2 22220  70.9999 222.8929 0014041 214.6632 257.4622 14.16472651477385
Epoch (UTC): 17 June 2021 14:43:29
Eccentricity: 0.0014041
inclination: 70.9999°
perigee height: 827 km
apogee height: 847 km
right ascension of ascending node: 222.8929°
argument of perigee: 214.6632°
revolutions per day: 14.16472651
mean anomaly at epoch: 257.4622°
orbit number at epoch: 47738

The dashed part of the orbit path shows where the satellite is in the earth's shadow,  

DLR